Location: Helion Bumpstead
(52.0500°N, 0.4000°E)
Time: 22:25:27
(UTC+00:00)

Cosmos 2297 - Pass Details

Date: 15 November 2025
Orbit: 836 x 856 km, 71.0° (Epoch: 06 December)

Event Time Altitude Azimuth Distance (km) Brightness Sun altitude
Exits shadow 05:17:51 17° 326° (NNW) 2,005 5.3 -18.3°
Maximum altitude 05:22:16 78° 242° (WSW) 863 3.6 -17.7°
Drops below altitude 10° 05:27:53 10° 157° (SSE) 2,445 6.5 -16.8°
Sets 05:30:18 0° 157° (SSE) 3,374 7.3 -16.4°
